Santa Barbara, CA

10:00 AM PDT on April 23, 2017 (GMT -0700)
Santa Barbara Municipal

Weather History for KSBA - January, 2013

Change the Weather History Date:

Thursday, January 10, 2013

  Actual Average Record
Temperature  
Mean Temperature 51 °F 52 °F  
Max Temperature 57 °F 63 °F 75 °F (1990)
Min Temperature 44 °F 40 °F 26 °F (1949)
Degree Days  
Heating Degree Days 14 13  
Month to date heating degree days 151 130  
Since 1 July heating degree days 863 1014  
Cooling Degree Days 0 0  
Month to date cooling degree days 0 0  
Year to date cooling degree days 0 0  
Moisture  
Dew Point 32 °F    
Average Humidity 66    
Maximum Humidity 100    
Minimum Humidity 32    
Precipitation  
Precipitation 0.01 in 0.12 in 3.98 in (2001)
Month to date precipitation 0.34 1.17  
Year to date precipitation 0.34 1.17  
Since 1 July precipitation 6.41  
Sea Level Pressure  
Sea Level Pressure 30.03 in    
Wind  
Wind Speed 9 mph (NW)    
Max Wind Speed 36 mph    
Max Gust Speed 28 mph    
Visibility 10 miles    
Events      
T = Trace of Precipitation, MM = Missing Value Source: NWS Daily Summary

Daily Weather History Graph

Daily Weather History Graph

Search for Another Location

Airport or City:

Trip Planner

Search our weather history database for the weather conditions in past years. The results will help you decide how hot, cold, wet, or windy it might be!

Date:

Astronomy

Jan. 10, 2013 Rise Set
Actual Time 7:06 AM PST 5:08 PM PST
Civil Twilight 6:38 AM PST 5:35 PM PST
Nautical Twilight 6:07 AM PST 6:06 PM PST
Astronomical Twilight 5:37 AM PST 6:36 PM PST
Moon 5:51 AM PST (1/10) 4:20 PM PST (1/10)
Length of Visible Light 10h 56m
Length of Day
10h 01m
Waning Crescent, 1% of the Moon is Illuminated
Jan 10
Waning Crescent
Jan 11
New
Jan 18
First Quarter
Jan 26
Full
Feb 3
Last Quarter

Hourly Weather History & Observations

Time (PST) Temp. Windchill Dew Point Humidity Pressure Visibility Wind Dir Wind Speed Gust Speed Precip Events Conditions
12:53 AM 48.9 °F - 46.9 °F 93% 30.00 in 6.0 mi Calm Calm - N/A   Clear
1:53 AM 51.1 °F - 43.0 °F 74% 29.99 in 10.0 mi WNW 9.2 mph - N/A   Clear
2:53 AM 51.1 °F - 35.1 °F 54% 29.99 in 10.0 mi NW 9.2 mph - N/A   Clear
3:53 AM 50.0 °F - 30.0 °F 46% 29.98 in 10.0 mi WNW 9.2 mph - N/A   Clear
4:53 AM 51.1 °F - 32.0 °F 48% 29.97 in 10.0 mi NW 16.1 mph 24.2 mph N/A   Clear
5:53 AM 50.0 °F - 28.0 °F 43% 29.97 in 10.0 mi West 15.0 mph 24.2 mph N/A   Clear
6:53 AM 48.0 °F - 26.1 °F 42% 30.00 in 10.0 mi WNW 9.2 mph - N/A   Clear
7:53 AM 48.9 °F - 30.0 °F 48% 30.01 in 10.0 mi Calm Calm - N/A   Partly Cloudy
8:53 AM 52.0 °F - 27.0 °F 38% 30.02 in 10.0 mi North 10.4 mph 19.6 mph N/A   Clear
9:53 AM 53.1 °F - 26.1 °F 35% 30.04 in 10.0 mi NW 17.3 mph 26.5 mph N/A   Clear
10:53 AM 55.0 °F - 26.1 °F 33% 30.03 in 10.0 mi WNW 13.8 mph 19.6 mph N/A   Clear
11:53 AM 55.0 °F - 30.0 °F 38% 30.01 in 10.0 mi WNW 15.0 mph 26.5 mph N/A   Clear
12:53 PM 55.9 °F - 30.0 °F 37% 29.99 in 10.0 mi NW 20.7 mph 27.6 mph N/A   Scattered Clouds
1:53 PM 55.9 °F - 30.0 °F 37% 29.99 in 10.0 mi North - - N/A   Partly Cloudy
2:22 PM 55.4 °F - 30.2 °F 38% 30.00 in 10.0 mi North - - N/A   Partly Cloudy
2:53 PM 54.0 °F - 32.0 °F 43% 30.02 in 10.0 mi NW 19.6 mph 26.5 mph N/A   Mostly Cloudy
3:53 PM 48.0 °F - 35.1 °F 61% 30.02 in 10.0 mi West 12.7 mph 19.6 mph 0.00 in   Mostly Cloudy
4:53 PM 48.0 °F - 35.1 °F 61% 30.03 in 10.0 mi North - - 0.01 in   Mostly Cloudy
5:53 PM 46.0 °F 41.4 °F 35.1 °F 66% 30.05 in 10.0 mi West 9.2 mph - N/A   Mostly Cloudy
6:53 PM 46.9 °F - 36.0 °F 66% 30.06 in 10.0 mi WNW 5.8 mph - N/A   Clear
7:53 PM 48.0 °F - 35.1 °F 61% 30.07 in 10.0 mi NNW 18.4 mph - N/A   Clear
8:53 PM 48.0 °F - 30.9 °F 52% 30.11 in 10.0 mi NNW 13.8 mph 23.0 mph N/A   Clear
9:53 PM 46.0 °F 40.2 °F 30.0 °F 54% 30.12 in 10.0 mi NW 12.7 mph - N/A   Clear
10:53 PM 46.9 °F - 28.9 °F 50% 30.14 in 10.0 mi NW 10.4 mph - N/A   Clear
11:53 PM 45.0 °F 40.6 °F 28.0 °F 52% 30.14 in 10.0 mi NW 8.1 mph - N/A   Clear